This is the latest recevied weather packets stored in our database for station/object KE5OYL. If no packets are shown the sender has not sent any weather packets the latest 10 day(s).
| Time | Temp. | Humidity | Pressure | Rain* | Wind** | Luminosity | Snow |
|---|---|---|---|---|---|---|---|
| 1777849083 | 26.67° C | 32% | 1016.5 hPa | 0 mm | - | 212 W/m² | - |
| 1777848778 | 26.67° C | 32% | 1016.6 hPa | 0 mm | - | 274 W/m² | - |
| 1777848475 | 27.22° C | 32% | 1016.6 hPa | 0 mm | - | 307 W/m² | - |
| 1777848173 | 27.22° C | 31% | 1016.5 hPa | 0 mm | - | 327 W/m² | - |
| 1777847870 | 27.22° C | 33% | 1016.4 hPa | 0 mm | - | 346 W/m² | - |
| 1777847568 | 27.22° C | 33% | 1016.7 hPa | 0 mm | - | 135 W/m² | - |
| 1777847264 | 27.22° C | 33% | 1016.6 hPa | 0 mm | - | 211 W/m² | - |
| 1777846962 | 26.67° C | 32% | 1016.7 hPa | 0 mm | - | 254 W/m² | - |
| 1777846660 | 27.22° C | 32% | 1016.9 hPa | 0 mm | - | 315 W/m² | - |
| 1777846358 | 27.22° C | 32% | 1016.8 hPa | 0 mm | - | 385 W/m² | - |
| 1777846054 | 27.22° C | 32% | 1016.9 hPa | 0 mm | - | 428 W/m² | - |
| 1777845751 | 27.22° C | 32% | 1017 hPa | 0 mm | - | 439 W/m² | - |
| 1777845447 | 27.22° C | 30% | 1016.9 hPa | 0 mm | - | 458 W/m² | - |
| 1777845145 | 27.78° C | 30% | 1017.2 hPa | 0 mm | - | 108 W/m² | - |
| 1777844843 | 27.22° C | 30% | 1017.1 hPa | 0 mm | - | 507 W/m² | - |
| 1777844539 | 27.78° C | 30% | 1016.9 hPa | 0 mm | - | 525 W/m² | - |
| 1777844237 | 27.22° C | 30% | 1017.3 hPa | 0 mm | - | 541 W/m² | - |
| 1777843934 | 26.67° C | 31% | 1017 hPa | 0 mm | - | 550 W/m² | - |
| 1777843631 | 27.22° C | 31% | 1017.1 hPa | 0 mm | - | 562 W/m² | - |
| 1777843329 | 27.22° C | 31% | 1017.3 hPa | 0 mm | - | 581 W/m² | - |
| 1777843026 | 27.22° C | 31% | 1017.3 hPa | 0 mm | - | 593 W/m² | - |
| 1777842722 | 27.78° C | 32% | 1017.5 hPa | 0 mm | - | 604 W/m² | - |
| 1777842418 | 27.22° C | 32% | 1017.7 hPa | 0 mm | - | 611 W/m² | - |
| 1777842115 | 27.22° C | 31% | 1017.9 hPa | 0 mm | - | 630 W/m² | - |
| 1777841810 | 27.22° C | 32% | 1017.7 hPa | 0 mm | - | 653 W/m² | - |
* Rain latest hour (hover to see other rain measurements)
** Current wind speed in m/s (hover to see current wind gust speed)